TimeEDT,TemperatureF,Dew PointF,Humidity,Sea Level PressureIn,VisibilityMPH,Wind Direction,Wind SpeedMPH,Gust SpeedMPH,PrecipitationIn,Events,Conditions,WindDirDegrees,DateUTC
12:18 AM,39.2,35.6,87,30.08,10.0,NW,10.4,-,N/A,,Mostly Cloudy,320,2012-10-07 04:18:00
12:38 AM,41.0,35.6,81,30.08,10.0,WNW,8.1,-,N/A,,Overcast,300,2012-10-07 04:38:00
12:57 AM,41.0,35.6,81,30.07,10.0,WNW,8.1,-,N/A,,Overcast,300,2012-10-07 04:57:00
1:19 AM,41.0,35.6,81,30.06,10.0,NW,9.2,-,N/A,,Mostly Cloudy,310,2012-10-07 05:19:00
1:37 AM,41.0,35.6,81,30.08,10.0,WNW,9.2,-,N/A,,Overcast,290,2012-10-07 05:37:00
1:59 AM,41.0,35.6,81,30.10,10.0,WNW,8.1,-,N/A,,Overcast,290,2012-10-07 05:59:00
2:18 AM,41.0,35.6,81,30.09,10.0,WNW,8.1,-,N/A,,Overcast,300,2012-10-07 06:18:00
2:37 AM,41.0,35.6,81,30.08,10.0,NW,5.8,-,N/A,,Overcast,320,2012-10-07 06:37:00
2:57 AM,42.8,33.8,70,30.08,10.0,NW,6.9,-,N/A,,Overcast,320,2012-10-07 06:57:00
3:18 AM,42.8,33.8,70,30.08,10.0,NW,6.9,-,N/A,,Overcast,310,2012-10-07 07:18:00
3:38 AM,42.8,33.8,70,30.07,10.0,NNW,3.5,-,N/A,,Overcast,330,2012-10-07 07:38:00
3:58 AM,42.8,33.8,70,30.06,10.0,NNW,3.5,-,N/A,,Overcast,340,2012-10-07 07:58:00
4:18 AM,42.8,35.6,76,30.07,10.0,NW,3.5,-,N/A,,Light Drizzle,310,2012-10-07 08:18:00
4:38 AM,41.0,35.6,81,30.08,10.0,West,3.5,-,N/A,Rain,Rain,270,2012-10-07 08:38:00
4:58 AM,39.2,35.6,87,30.08,10.0,Calm,Calm,-,0.02,Rain,Rain,0,2012-10-07 08:58:00
5:18 AM,39.2,37.4,93,30.06,10.0,Calm,Calm,-,0.02,Rain,Rain,0,2012-10-07 09:18:00
5:40 AM,39.2,37.4,93,30.09,10.0,WNW,4.6,-,0.04,Rain,Light Rain,290,2012-10-07 09:40:00
5:58 AM,39.2,37.4,93,30.08,10.0,Calm,Calm,-,N/A,,Overcast,0,2012-10-07 09:58:00
6:18 AM,39.2,37.4,93,30.08,10.0,Calm,Calm,-,N/A,,Drizzle,0,2012-10-07 10:18:00
6:37 AM,39.2,37.4,93,30.09,10.0,Calm,Calm,-,N/A,,Light Drizzle,0,2012-10-07 10:37:00
6:58 AM,39.2,37.4,93,30.09,7.0,Calm,Calm,-,N/A,,Drizzle,0,2012-10-07 10:58:00
7:18 AM,39.2,37.4,93,30.07,10.0,East,8.1,-,0.02,Rain,Rain,100,2012-10-07 11:18:00
7:37 AM,39.2,37.4,93,30.05,0.2,ESE,11.5,-,0.05,Rain,Rain,110,2012-10-07 11:37:00
7:57 AM,37.4,37.4,100,30.07,0.2,ENE,9.2,-,N/A,Rain,Rain,70,2012-10-07 11:57:00
8:17 AM,37.4,37.4,100,30.10,0.5,ENE,4.6,-,N/A,Rain,Light Rain,70,2012-10-07 12:17:00
8:37 AM,37.4,37.4,100,-9999,1.0,East,5.8,-,N/A,,Overcast,80,2012-10-07 12:37:00
8:58 AM,37.4,37.4,100,30.09,0.2,East,4.6,-,0.01,Rain,Light Rain,90,2012-10-07 12:58:00
9:17 AM,37.4,37.4,100,30.10,0.2,East,6.9,-,0.01,,Drizzle,100,2012-10-07 13:17:00
9:39 AM,37.4,-9999,N/A,30.10,0.2,East,6.9,-,0.01,,Drizzle,90,2012-10-07 13:39:00
10:00 AM,37.4,37.4,100,30.10,0.2,East,8.1,-,N/A,Snow,Light Snow,100,2012-10-07 14:00:00
10:18 AM,37.4,37.4,100,30.10,0.2,East,8.1,-,N/A,Snow,Light Snow,100,2012-10-07 14:18:00
10:39 AM,37.4,37.4,100,30.10,0.2,East,5.8,-,N/A,Snow,Light Snow,80,2012-10-07 14:39:00
10:58 AM,37.4,37.4,100,30.12,0.2,East,3.5,-,N/A,Snow,Light Snow,100,2012-10-07 14:58:00
11:20 AM,37.4,37.4,100,30.10,0.2,ENE,5.8,-,N/A,Rain,Rain,70,2012-10-07 15:20:00
11:37 AM,37.4,37.4,100,30.10,0.2,East,5.8,-,N/A,,Overcast,90,2012-10-07 15:37:00
11:57 AM,37.4,37.4,100,30.09,0.2,ESE,6.9,-,N/A,,Drizzle,110,2012-10-07 15:57:00
12:17 PM,37.4,37.4,100,30.09,0.2,East,4.6,-,N/A,Rain,Rain,100,2012-10-07 16:17:00
12:38 PM,39.2,39.2,100,30.09,0.2,Calm,Calm,-,N/A,,Heavy Drizzle,0,2012-10-07 16:38:00
12:58 PM,39.2,39.2,100,30.09,0.2,Calm,Calm,-,0.01,,Drizzle,0,2012-10-07 16:58:00
1:18 PM,39.2,39.2,100,30.08,0.2,ESE,4.6,-,0.02,Rain,Light Rain,120,2012-10-07 17:18:00
1:37 PM,39.2,39.2,100,30.07,0.2,East,3.5,-,0.02,,Drizzle,90,2012-10-07 17:37:00
1:57 PM,39.2,39.2,100,30.06,0.2,Calm,Calm,-,N/A,Rain,Rain,0,2012-10-07 17:57:00
2:18 PM,39.2,39.2,100,30.07,0.2,NW,5.8,-,N/A,,Light Drizzle,310,2012-10-07 18:18:00
2:38 PM,39.2,39.2,100,30.07,0.2,WNW,5.8,-,0.02,,Drizzle,300,2012-10-07 18:38:00
2:58 PM,39.2,39.2,100,30.07,0.2,West,6.9,-,0.01,,Drizzle,280,2012-10-07 18:58:00
3:38 PM,39.2,39.2,100,30.07,0.2,West,11.5,-,0.04,Rain,Rain,280,2012-10-07 19:38:00
3:59 PM,39.2,39.2,100,30.07,0.2,West,9.2,-,N/A,,Drizzle,270,2012-10-07 19:59:00
4:17 PM,39.2,39.2,100,30.08,0.2,West,10.4,16.1,N/A,Rain,Rain,280,2012-10-07 20:17:00
4:38 PM,39.2,39.2,100,30.08,0.2,West,10.4,17.3,0.03,Rain,Rain,280,2012-10-07 20:38:00
4:58 PM,39.2,39.2,100,30.09,0.2,West,12.7,-,0.01,Rain,Light Rain,280,2012-10-07 20:58:00
5:19 PM,39.2,39.2,100,30.09,0.2,WNW,12.7,20.7,0.01,Rain,Light Rain,290,2012-10-07 21:19:00
5:37 PM,39.2,39.2,100,30.09,0.2,WNW,12.7,16.1,0.01,,Unknown,300,2012-10-07 21:37:00
5:57 PM,39.2,39.2,100,30.09,0.2,WNW,12.7,16.1,N/A,,Unknown,290,2012-10-07 21:57:00
6:18 PM,39.2,39.2,100,30.10,0.2,WNW,8.1,-,N/A,Fog,Fog,300,2012-10-07 22:18:00
6:38 PM,37.4,37.4,100,30.11,3.0,WNW,12.7,18.4,N/A,,Overcast,290,2012-10-07 22:38:00
6:57 PM,37.4,37.4,100,30.10,10.0,West,9.2,-,N/A,,Unknown,280,2012-10-07 22:57:00
7:18 PM,37.4,37.4,100,30.11,10.0,WNW,8.1,-,N/A,,Mostly Cloudy,290,2012-10-07 23:18:00
7:37 PM,35.6,35.6,100,30.11,10.0,NW,10.4,16.1,N/A,,Unknown,310,2012-10-07 23:37:00
7:58 PM,35.6,35.6,100,30.11,7.0,WNW,8.1,-,N/A,,Overcast,300,2012-10-07 23:58:00
8:18 PM,35.6,35.6,100,30.11,3.0,WNW,5.8,-,N/A,,Mostly Cloudy,300,2012-10-08 00:18:00
8:38 PM,35.6,35.6,100,30.12,10.0,WNW,8.1,16.1,N/A,,Scattered Clouds,300,2012-10-08 00:38:00
8:58 PM,35.6,35.6,100,30.13,10.0,NW,8.1,-,N/A,,Scattered Clouds,310,2012-10-08 00:58:00
9:18 PM,35.6,35.6,100,30.14,10.0,NW,5.8,-,N/A,,Scattered Clouds,310,2012-10-08 01:18:00
9:37 PM,35.6,35.6,100,30.15,10.0,NW,8.1,-,N/A,,Mostly Cloudy,310,2012-10-08 01:37:00
9:57 PM,33.8,33.8,100,30.15,10.0,NW,8.1,-,N/A,,Scattered Clouds,310,2012-10-08 01:57:00
10:18 PM,33.8,33.8,100,30.15,10.0,WNW,6.9,-,N/A,,Clear,300,2012-10-08 02:18:00
10:38 PM,33.8,33.8,100,30.15,10.0,WNW,9.2,-,N/A,,Clear,300,2012-10-08 02:38:00
10:58 PM,33.8,33.8,100,30.16,10.0,WNW,11.5,-,N/A,,Scattered Clouds,290,2012-10-08 02:58:00
11:17 PM,33.8,33.8,100,30.17,10.0,WNW,9.2,-,N/A,,Scattered Clouds,290,2012-10-08 03:17:00
11:38 PM,33.8,33.8,100,30.17,10.0,WNW,9.2,-,N/A,,Scattered Clouds,290,2012-10-08 03:38:00
11:58 PM,33.8,33.8,100,30.16,10.0,WNW,12.7,-,N/A,,Clear,290,2012-10-08 03:58:00